GW6341 Weather Reports


time (UTC)temp
F
wind
direction
speed
knots
gust
knots
rain 1hr
in
rain 24hr
in
rain mn
in
humidity
%
barometer
mb
20260507051839 50 31 0.0 0.0 0.00 0.00 0.00 95 1020.3
20260507051337 50 31 0.0 0.9 0.00 0.00 0.00 95 1020.3
20260507050833 50 32 0.0 0.0 0.00 0.00 0.00 95 1020.3
20260507050330 50 32 0.0 0.0 0.00 0.00 0.00 95 1020.3
20260507045827 50 38 0.0 0.0 0.00 0.00 0.00 95 1020.2
20260507045323 51 36 0.0 0.9 0.00 0.00 0.00 95 1020.1
20260507044820 51 36 0.0 0.9 0.00 0.00 0.00 95 1020.1
20260507044317 51 22 0.0 0.9 0.00 0.00 0.00 95 1019.9
20260507043813 51 21 0.0 0.0 0.00 0.00 0.00 95 1019.9
20260507043310 51 24 0.0 0.9 0.00 0.00 0.00 94 1020.1
20260507042806 51 27 0.9 0.9 0.00 0.00 0.00 94 1020.1
20260507042301 51 28 0.0 0.0 0.00 0.00 0.00 94 1020.0
20260507041759 51 25 0.9 0.9 0.00 0.00 0.00 93 1019.7
20260507041255 51 28 0.9 0.9 0.00 0.00 0.00 93 1019.8
20260507040752 51 28 0.0 0.9 0.00 0.00 0.00 93 1019.8
20260507040248 52 20 0.9 0.9 0.00 0.00 0.00 93 1019.8
20260507035745 52 28 0.9 0.9 0.00 0.00 0.00 92 1019.4
20260507035240 53 36 0.0 0.0 0.00 0.00 0.00 91 1019.4
20260507034738 53 37 0.0 0.9 0.00 0.00 0.00 91 1019.5
20260507034235 53 68 0.0 0.0 0.00 0.00 0.00 90 1019.3
20260507033733 54 30 0.0 0.9 0.00 0.00 0.00 90 1019.5
20260507033230 54 45 0.0 0.0 0.00 0.00 0.00 90 1019.4
20260507032728 54 36 0.0 0.9 0.00 0.00 0.00 90 1019.4
20260507032223 54 38 0.0 0.0 0.00 0.00 0.00 90 1019.4
20260507031720 54 36 0.0 0.0 0.00 0.00 0.00 89 1019.3
20260507031217 55 50 0.0 0.9 0.00 0.00 0.00 88 1019.2
20260507030714 55 59 0.0 0.0 0.00 0.00 0.00 87 1019.2
20260507030211 55 69 0.0 0.0 0.00 0.00 0.00 87 1019.3
20260507025708 56 57 0.0 0.0 0.00 0.00 0.00 86 1019.0
20260507025205 56 59 0.0 0.0 0.00 0.00 0.00 85 1019.3
20260507024703 57 67 0.0 0.0 0.00 0.00 0.00 85 1019.2
20260507024200 57 69 0.0 0.0 0.00 0.00 0.00 84 1018.9
20260507023655 57 37 0.9 0.9 0.00 0.00 0.00 84 1019.0
20260507023153 58 71 0.0 0.0 0.00 0.00 0.00 83 1019.1
20260507022650 58 108 0.0 0.9 0.00 0.00 0.00 83 1019.0
20260507022146 59 79 0.0 0.0 0.00 0.00 0.00 82 1019.0
20260507021642 59 131 0.9 0.9 0.00 0.00 0.00 80 1019.4
20260507021137 59 80 0.0 0.0 0.00 0.00 0.00 80 1019.2
20260507020636 59 143 2.6 4.3 0.00 0.00 0.00 81 1019.1
20260507020132 59 77 0.0 0.0 0.00 0.00 0.00 81 1019.0
20260507015631 60 90 0.0 0.0 0.00 0.00 0.00 81 1019.1
20260507015128 60 193 2.6 2.6 0.00 0.00 0.00 80 1019.1
20260507014624 60 103 0.9 1.7 0.00 0.00 0.00 80 1019.1
20260507014120 61 187 1.7 1.7 0.00 0.00 0.00 78 1019.1
20260507013617 61 153 2.6 4.3 0.00 0.00 0.00 79 1019.0
20260507013114 61 108 2.6 2.6 0.00 0.00 0.00 79 1019.0
20260507012612 62 195 2.6 2.6 0.00 0.00 0.00 77 1019.1
20260507012107 62 183 1.7 1.7 0.00 0.00 0.00 77 1019.2
20260507011605 62 152 1.7 1.7 0.00 0.00 0.00 76 1018.9
20260507011101 62 117 3.5 5.2 0.00 0.00 0.00 77 1019.2
20260507010556 63 148 1.7 1.7 0.00 0.00 0.00 77 1019.3
20260507010052 63 120 0.9 0.9 0.00 0.00 0.00 78 1019.2
20260507005550 63 164 3.5 4.3 0.00 0.00 0.00 76 1019.2
20260507005046 63 59 0.9 0.9 0.00 0.00 0.00 76 1019.1
20260507004543 64 131 4.3 6.1 0.00 0.00 0.00 75 1019.1
20260507004040 64 166 1.7 2.6 0.00 0.00 0.00 73 1019.1
20260507003536 65 120 0.9 1.7 0.00 0.00 0.00 72 1018.9
20260507003031 66 116 0.9 1.7 0.00 0.00 0.00 74 1018.9
20260507002528 66 138 1.7 2.6 0.00 0.00 0.00 74 1018.9
20260507002024 67 135 1.7 1.7 0.00 0.00 0.00 69 1019.1
20260507001521 66 35 0.0 0.9 0.00 0.00 0.00 71 1019.1
20260507001018 67 137 1.7 1.7 0.00 0.00 0.00 71 1019.1
20260507000514 66 125 1.7 1.7 0.00 0.00 0.00 72 1019.2
20260507000010 66 141 3.5 4.3 0.00 0.00 0.00 71 1019.0
20260506235507 66 104 1.7 1.7 0.00 0.00 0.00 72 1019.0
20260506235003 67 134 6.1 7.0 0.00 0.00 0.00 71 1018.8
20260506234500 65 72 0.0 0.0 0.00 0.00 0.00 70 1019.0
20260506233958 67 108 2.6 2.6 0.00 0.00 0.00 71 1018.9
20260506233454 67 240 1.7 1.7 0.00 0.00 0.00 71 1019.1
20260506232951 67 104 1.7 1.7 0.00 0.00 0.00 68 1018.8
20260506232447 68 179 3.5 4.3 0.00 0.00 0.00 73 1018.8
20260506231943 68 261 2.6 4.3 0.00 0.00 0.00 70 1018.9
20260506231441 68 202 3.5 5.2 0.00 0.00 0.00 69 1018.9
20260506230938 68 156 2.6 5.2 0.00 0.00 0.00 72 1019.1
20260506230434 68 142 3.5 4.3 0.00 0.00 0.00 69 1019.1
20260506225931 69 121 6.1 7.8 0.00 0.00 0.00 71 1018.9
20260506225428 68 193 2.6 2.6 0.00 0.00 0.00 70 1019.0
20260506224925 68 160 2.6 4.3 0.00 0.00 0.00 72 1019.1
20260506224422 68 155 2.6 4.3 0.00 0.00 0.00 70 1019.0
20260506223919 68 135 3.5 4.3 0.00 0.00 0.00 72 1019.1
20260506223414 68 184 3.5 5.2 0.00 0.00 0.00 71 1019.1
20260506222911 68 142 5.2 7.0 0.00 0.00 0.00 70 1019.4
20260506222408 68 236 2.6 4.3 0.00 0.00 0.00 70 1019.2
20260506221905 69 184 3.5 5.2 0.00 0.00 0.00 72 1019.2
20260506221402 69 90 1.7 1.7 0.00 0.00 0.00 72 1019.2
20260506220859 68 145 4.3 4.3 0.00 0.00 0.00 70 1019.1
20260506220355 68 105 0.0 0.9 0.00 0.00 0.00 71 1019.3
20260506215852 68 118 1.7 1.7 0.00 0.00 0.00 69 1019.3
20260506215348 68 137 4.3 6.1 0.00 0.00 0.00 72 1019.2
20260506214844 67 94 2.6 4.3 0.00 0.00 0.00 70 1019.2
20260506214341 67 108 2.6 2.6 0.00 0.00 0.00 74 1019.5
20260506213839 67 48 3.5 5.2 0.00 0.00 0.00 75 1019.4
20260506213336 67 109 4.3 6.1 0.00 0.00 0.00 68 1019.2
20260506212833 67 88 1.7 4.3 0.00 0.00 0.00 71 1019.3
20260506212329 67 48 0.9 0.9 0.00 0.00 0.00 69 1019.3
20260506211824 67 57 0.9 1.7 0.00 0.00 0.00 73 1019.4
20260506211320 67 83 0.9 1.7 0.00 0.00 0.00 73 1019.2
20260506210818 68 168 0.9 1.7 0.00 0.00 0.00 73 1019.3
20260506210314 65 85 0.0 0.9 0.00 0.00 0.00 72 1019.4
20260506205812 66 111 2.6 2.6 0.00 0.00 0.00 74 1019.4
20260506205307 66 197 2.6 2.6 0.00 0.00 0.00 72 1019.6
20260506204804 65 162 0.9 1.7 0.00 0.00 0.00 78 1019.5
20260506204302 64 151 2.6 2.6 0.00 0.00 0.00 73 1019.5
20260506203800 64 179 2.6 2.6 0.00 0.00 0.00 75 1019.7
20260506203257 66 176 2.6 2.6 0.00 0.00 0.00 76 1019.6
20260506202753 66 178 3.5 4.3 0.00 0.00 0.00 74 1019.5
20260506202250 65 171 2.6 2.6 0.00 0.00 0.00 75 1019.9
20260506201747 63 64 0.0 0.9 0.00 0.00 0.00 78 1019.7
20260506201243 63 145 4.3 5.2 0.00 0.00 0.00 77 1019.6
20260506200741 63 120 2.6 2.6 0.00 0.00 0.00 78 1019.8
20260506200237 64 115 2.6 2.6 0.00 0.00 0.00 75 1019.7
20260506195733 63 107 2.6 2.6 0.00 0.00 0.00 79 1019.8
20260506195230 62 107 3.5 4.3 0.00 0.00 0.00 79 1019.9
20260506194727 62 76 0.9 1.7 0.00 0.00 0.00 77 1019.7
20260506194224 64 80 3.5 4.3 0.00 0.00 0.00 78 1019.4
20260506193722 64 199 3.5 5.2 0.00 0.00 0.00 77 1019.6
20260506193218 64 114 2.6 2.6 0.00 0.00 0.00 83 1019.7
20260506192715 63 37 0.0 0.9 0.00 0.00 0.00 78 1019.9
20260506192212 63 210 0.9 0.9 0.00 0.00 0.00 75 1019.8
20260506191709 63 193 3.5 4.3 0.00 0.00 0.00 78 1019.8
20260506191205 63 221 5.2 6.1 0.00 0.00 0.00 78 1019.9
20260506190703 62 154 1.7 1.7 0.00 0.00 0.00 78 1019.7
20260506190159 62 210 2.6 2.6 0.00 0.00 0.00 80 1019.8
20260506185656 62 132 2.6 4.3 0.00 0.00 0.00 81 1019.7
20260506185152 62 129 2.6 2.6 0.00 0.00 0.00 82 1019.9
20260506184650 62 181 5.2 6.1 0.00 0.00 0.00 76 1019.7
20260506184147 61 132 4.3 6.1 0.00 0.00 0.00 80 1019.8
20260506183643 63 171 3.5 4.3 0.00 0.00 0.00 78 1019.6
20260506183139 62 178 1.7 1.7 0.00 0.00 0.00 81 1019.7
20260506182637 62 192 1.7 1.7 0.00 0.00 0.00 78 1019.7
20260506182133 61 122 3.5 5.2 0.00 0.00 0.00 82 1019.7
20260506181632 62 215 1.7 1.7 0.00 0.00 0.00 81 1019.9
20260506181128 61 336 0.9 0.9 0.00 0.00 0.00 79 1019.8
20260506180625 61 199 5.2 6.1 0.00 0.00 0.00 80 1019.9
20260506180122 61 267 2.6 4.3 0.00 0.00 0.00 80 1019.8
20260506175618 60 76 1.7 2.6 0.00 0.00 0.00 78 1019.9
20260506175114 61 168 4.3 5.2 0.00 0.00 0.00 84 1019.8
20260506174613 61 64 0.0 0.0 0.00 0.00 0.00 78 1019.6
20260506174109 61 219 2.6 2.6 0.00 0.00 0.00 82 1019.6
20260506173607 61 98 1.7 2.6 0.00 0.00 0.00 82 1019.5
20260506173103 60 172 0.9 0.9 0.00 0.00 0.00 84 1019.5
20260506172601 60 182 3.5 4.3 0.00 0.00 0.00 82 1019.6
20260506172057 59 132 0.9 0.9 0.00 0.00 0.00 82 1019.6
20260506171555 60 219 1.7 1.7 0.00 0.00 0.00 82 1019.8
20260506171052 59 145 3.5 4.3 0.00 0.00 0.00 83 1020.0
20260506170549 59 193 2.6 2.6 0.00 0.00 0.00 88 1019.7
20260506170047 58 150 0.9 1.7 0.00 0.00 0.00 85 1019.8
20260506165545 57 26 0.0 0.9 0.00 0.00 0.00 87 1019.7
20260506165041 58 108 0.9 0.9 0.00 0.00 0.00 86 1019.8
20260506164538 58 33 0.0 0.9 0.00 0.00 0.00 86 1019.6
20260506164035 57 100 1.7 1.7 0.00 0.00 0.00 88 1019.9
20260506163531 57 63 0.9 1.7 0.00 0.00 0.00 90 1020.1
20260506163027 56 80 0.0 0.9 0.00 0.00 0.00 92 1019.9
20260506162524 57 79 0.0 0.9 0.00 0.00 0.00 90 1020.0
20260506162021 55 80 0.0 0.9 0.00 0.00 0.00 91 1020.0
20260506161519 55 153 1.7 1.7 0.00 0.00 0.00 92 1019.7
20260506161016 55 83 0.9 0.9 0.00 0.00 0.00 92 1019.7
20260506160514 54 206 1.7 1.7 0.00 0.00 0.00 92 1019.7
20260506160011 54 19 0.9 0.9 0.00 0.00 0.00 93 1019.5
20260506155509 53 171 0.0 0.9 0.00 0.00 0.00 95 1019.5
20260506153640 52 187 1.7 1.7 0.00 0.00 0.00 98 1019.5
20260506153137 52 78 0.0 0.0 0.00 0.00 0.00 99 1019.7
20260506152634 52 61 0.0 0.0 0.00 0.00 0.00 99 1019.7
20260506152131 52 84 0.9 0.9 0.00 0.00 0.00 99 1019.6
20260506151630 52 64 0.0 0.9 0.00 0.00 0.00 99 1019.8
20260506151126 51 47 0.0 0.0 0.00 0.00 0.00 99 1019.9
20260506150623 51 54 0.0 0.9 0.00 0.00 0.00 99 1019.8
20260506150120 51 95 0.9 1.7 0.00 0.00 0.00 99 1019.8
20260506145617 50 105 0.9 1.7 0.00 0.00 0.00 99 1019.8
20260506145114 50 60 0.0 0.0 0.00 0.00 0.00 99 1019.9
20260506144611 50 75 0.0 0.0 0.00 0.00 0.00 99 1019.9
20260506144108 50 70 0.0 0.0 0.00 0.00 0.00 99 1019.8
20260506143606 50 49 0.0 0.9 0.00 0.00 0.00 99 1019.8
20260506143103 50 74 0.0 0.9 0.00 0.00 0.00 99 1019.7
20260506142601 50 49 0.0 0.0 0.00 0.00 0.00 99 1019.3
20260506142059 50 25 0.0 0.0 0.00 0.00 0.00 99 1019.2
20260506141557 50 103 0.9 0.9 0.00 0.00 0.00 99 1019.0
20260506141055 50 37 0.0 0.0 0.00 0.00 0.00 99 1019.1
20260506140552 50 84 0.0 0.9 0.00 0.00 0.00 99 1018.9
20260506140049 50 116 0.9 0.9 0.00 0.00 0.00 99 1019.0
20260506135546 50 67 0.0 0.0 0.00 0.00 0.00 99 1019.0
20260506135042 50 78 0.0 0.0 0.00 0.00 0.00 99 1018.8
20260506134539 50 23 0.0 0.0 0.00 0.00 0.00 99 1018.8
20260506134035 50 67 0.0 0.0 0.00 0.00 0.00 99 1018.8
20260506133532 50 45 0.0 0.0 0.00 0.00 0.00 99 1018.9
20260506133029 50 28 0.0 0.0 0.00 0.00 0.00 99 1018.7
20260506132526 50 74 0.0 0.0 0.00 0.00 0.00 99 1018.9
20260506132024 50 70 0.0 0.0 0.00 0.00 0.00 99 1018.8
20260506131520 50 72 0.0 0.0 0.00 0.00 0.00 99 1018.6
20260506131017 50 24 0.0 0.0 0.00 0.00 0.00 99 1018.7
20260506130514 50 14 0.0 0.0 0.00 0.00 0.00 99 1018.6
20260506130011 50 18 0.0 0.0 0.00 0.00 0.00 99 1018.4
20260506125509 50 7 0.0 0.0 0.00 0.00 0.00 99 1018.5
20260506125007 50 46 0.0 0.0 0.00 0.00 0.00 99 1018.6
20260506124504 50 47 0.0 0.0 0.00 0.00 0.00 99 1018.3
20260506124002 50 47 0.0 0.0 0.00 0.00 0.00 99 1018.3
20260506123500 49 47 0.0 0.0 0.00 0.00 0.00 99 1018.4
20260506122957 49 47 0.0 0.0 0.00 0.00 0.00 99 1018.5
20260506122454 50 44 0.0 0.0 0.00 0.00 0.00 99 1018.5
20260506121953 50 44 0.0 0.0 0.00 0.00 0.00 99 1018.7
20260506121449 49 44 0.0 0.0 0.00 0.00 0.00 99 1018.5
20260506120946 50 44 0.0 0.0 0.00 0.00 0.00 99 1018.6
20260506120443 49 22 0.0 0.0 0.00 0.00 0.00 99 1018.4
20260506115941 50 22 0.0 0.0 0.00 0.00 0.00 99 1018.4
20260506115439 50 22 0.0 0.0 0.00 0.00 0.00 99 1018.2
20260506114937 50 22 0.0 0.0 0.00 0.00 0.00 99 1018.2
20260506114434 50 50 0.0 0.0 0.00 0.00 0.00 99 1018.2
20260506113932 50 52 0.9 0.9 0.00 0.00 0.00 99 1018.2
20260506113430 50 71 0.9 0.9 0.00 0.00 0.00 99 1018.3
20260506112926 50 30 0.0 0.0 0.00 0.00 0.00 99 1018.0
20260506112424 50 36 0.9 0.9 0.00 0.00 0.00 99 1017.9
20260506111921 50 76 0.9 1.7 0.00 0.00 0.00 99 1018.0
20260506111419 50 67 0.0 0.0 0.00 0.00 0.00 99 1017.7
20260506110916 50 68 0.0 0.0 0.00 0.00 0.00 99 1017.9
20260506110414 50 68 0.0 0.0 0.00 0.00 0.00 99 1017.7
20260506105910 50 69 0.0 0.0 0.00 0.00 0.00 99 1017.7
20260506105406 49 66 0.0 0.0 0.00 0.00 0.00 99 1017.6
20260506104904 49 66 0.0 0.0 0.00 0.00 0.00 99 1017.4
20260506104401 49 36 0.0 0.0 0.00 0.00 0.00 99 1017.5
20260506103859 49 37 0.0 0.0 0.00 0.00 0.00 99 1017.5
20260506103356 49 37 0.0 0.0 0.00 0.00 0.00 99 1017.3
20260506102853 49 37 0.0 0.0 0.00 0.00 0.00 99 1017.2
20260506102351 49 38 0.0 0.0 0.00 0.00 0.00 99 1017.1
20260506101848 49 38 0.0 0.0 0.00 0.00 0.00 99 1017.3
20260506101344 50 38 0.0 0.0 0.00 0.00 0.00 99 1017.2
20260506100842 50 38 0.0 0.0 0.00 0.00 0.00 99 1017.2
20260506100340 50 38 0.0 0.0 0.00 0.00 0.00 99 1017.0
20260506095838 50 38 0.0 0.0 0.00 0.00 0.00 99 1017.1
20260506095335 50 38 0.0 0.0 0.00 0.00 0.00 99 1017.2
20260506094832 50 38 0.0 0.0 0.00 0.00 0.00 99 1017.0
20260506094331 50 38 0.0 0.0 0.00 0.00 0.00 99 1017.0
20260506093829 50 37 0.0 0.0 0.00 0.00 0.00 99 1017.3
20260506093326 49 37 0.0 0.0 0.00 0.00 0.00 99 1016.9
20260506092823 50 37 0.0 0.0 0.00 0.00 0.00 99 1016.8
20260506092321 50 37 0.0 0.0 0.00 0.00 0.00 99 1016.9
20260506091818 50 37 0.0 0.0 0.00 0.00 0.00 99 1016.7
20260506091315 50 37 0.0 0.0 0.00 0.00 0.00 99 1016.7
20260506090813 50 37 0.0 0.0 0.00 0.00 0.00 99 1016.8
20260506090310 50 37 0.0 0.0 0.00 0.00 0.00 99 1016.9
20260506085807 50 37 0.0 0.0 0.00 0.00 0.00 99 1016.9
20260506085305 50 37 0.0 0.0 0.00 0.00 0.00 99 1016.8
20260506084759 50 37 0.0 0.0 0.00 0.00 0.00 99 1016.8
20260506084256 50 37 0.0 0.0 0.00 0.00 0.00 99 1016.6
20260506083753 50 37 0.0 0.0 0.00 0.00 0.00 99 1016.8
20260506083251 50 37 0.0 0.0 0.00 0.00 0.00 99 1016.8
20260506082748 50 37 0.0 0.0 0.00 0.00 0.00 99 1016.7
20260506082243 50 37 0.0 0.0 0.00 0.00 0.00 99 1016.8
20260506081741 50 37 0.0 0.0 0.00 0.00 0.00 99 1016.7
20260506081238 51 37 0.0 0.0 0.00 0.00 0.00 99 1016.5
20260506080737 51 37 0.0 0.0 0.00 0.00 0.00 99 1016.7
20260506080232 51 37 0.0 0.0 0.00 0.00 0.00 99 1016.7
20260506073217 52 37 0.0 0.0 0.00 0.00 0.00 98 1016.4
20260506072713 52 39 0.0 0.0 0.00 0.00 0.00 98 1016.5
20260506072211 52 39 0.0 0.0 0.00 0.00 0.00 98 1016.7
20260506071708 52 38 0.0 0.0 0.00 0.00 0.00 98 1016.7
20260506071206 52 38 0.0 0.0 0.00 0.00 0.00 98 1016.5
20260506070703 52 39 0.0 0.0 0.00 0.00 0.00 98 1016.4
20260506070200 52 50 0.0 0.0 0.00 0.00 0.00 98 1016.5
20260506062137 53 53 0.0 0.0 0.00 0.00 0.00 96 1016.4
20260506061633 54 54 0.0 0.0 0.00 0.00 0.00 95 1016.3
20260506061131 54 47 0.0 0.0 0.00 0.00 0.00 95 1016.1
20260506060629 54 46 0.0 0.0 0.00 0.00 0.00 94 1016.1
20260506060125 55 86 0.0 0.0 0.00 0.00 0.00 93 1016.1